Frederick, OK

10:24 AM CST on December 04, 2016 (GMT -0600)
Frederick Municipal

Weather History for KFDR - January, 2014

Change the Weather History Date:

Saturday, January 11, 2014

  Actual Average (KLTS) Record (KLTS)
Temperature  
Mean Temperature 50 °F -  
Max Temperature 66 °F 48 °F 75 °F (1999)
Min Temperature 34 °F 26 °F 10 °F (2011)
Degree Days  
Heating Degree Days 15    
Moisture  
Dew Point 18 °F    
Average Humidity 34    
Maximum Humidity 57    
Minimum Humidity 13    
Precipitation  
Precipitation 0.00 in - - ()
Sea Level Pressure  
Sea Level Pressure 29.99 in    
Wind  
Wind Speed 11 mph (West)    
Max Wind Speed 18 mph    
Max Gust Speed -    
Visibility 10 miles    
Events      
Averages and records for this station are not official NWS values.
T = Trace of Precipitation, MM = Missing Value Source: NWS Daily Summary

Daily Weather History Graph

Daily Weather History Graph

Search for Another Location

Airport or City:

Trip Planner

Search our weather history database for the weather conditions in past years. The results will help you decide how hot, cold, wet, or windy it might be!

Date:

Astronomy

Jan. 11, 2014 Rise Set
Actual Time 7:42 AM CST 5:45 PM CST
Civil Twilight 7:15 AM CST 6:12 PM CST
Nautical Twilight 6:44 AM CST 6:43 PM CST
Astronomical Twilight 6:13 AM CST 7:14 PM CST
Moon 2:28 PM CST (1/11) 3:51 AM CST (1/11)
Length of Visible Light 10h 57m
Length of Day
10h 02m
Waxing Gibbous, 83% of the Moon is Illuminated
Jan 11
Waxing Gibbous
Jan 15
Full
Jan 23
Last Quarter
Jan 30
New
Feb 6
First Quarter

Hourly Weather History & Observations

Time (CST) Temp. Windchill Dew Point Humidity Pressure Visibility Wind Dir Wind Speed Gust Speed Precip Events Conditions
12:53 AM 36.0 °F 31.1 °F 21.9 °F 57% 29.84 in 10.0 mi WNW 5.8 mph - N/A   Clear
1:53 AM 37.9 °F 30.5 °F 19.9 °F 48% 29.87 in 10.0 mi WNW 11.5 mph - N/A   Clear
2:53 AM 39.0 °F 31.0 °F 19.0 °F 45% 29.90 in 10.0 mi NW 13.8 mph - N/A   Clear
3:53 AM 37.9 °F 28.9 °F 17.1 °F 43% 29.93 in 10.0 mi NW 16.1 mph - N/A   Clear
4:53 AM 37.9 °F 29.2 °F 15.1 °F 39% 29.94 in 10.0 mi NW 15.0 mph - N/A   Clear
5:53 AM 39.0 °F 29.6 °F 15.1 °F 38% 29.97 in 10.0 mi NW 18.4 mph - N/A   Clear
6:53 AM 37.0 °F 28.1 °F 15.1 °F 41% 30.01 in 10.0 mi WNW 15.0 mph - N/A   Clear
7:53 AM 34.0 °F 24.2 °F 16.0 °F 48% 30.03 in 10.0 mi WNW 15.0 mph - N/A   Clear
8:53 AM 39.9 °F 32.1 °F 17.1 °F 40% 30.05 in 10.0 mi WNW 13.8 mph - N/A   Clear
9:53 AM 46.9 °F - 19.0 °F 33% 30.08 in 10.0 mi West 13.8 mph - N/A   Clear
10:53 AM 54.0 °F - 21.0 °F 28% 30.09 in 10.0 mi West 13.8 mph - N/A   Clear
11:53 AM 60.1 °F - 19.9 °F 21% 30.08 in 10.0 mi WNW 15.0 mph - N/A   Clear
12:53 PM 63.0 °F - 19.0 °F 18% 30.05 in 10.0 mi WNW 15.0 mph - N/A   Clear
1:53 PM 64.9 °F - 19.0 °F 17% 30.02 in 10.0 mi WNW 9.2 mph - N/A   Clear
2:53 PM 64.9 °F - 16.0 °F 15% 30.01 in 10.0 mi NW 9.2 mph - N/A   Clear
3:53 PM 66.0 °F - 14.0 °F 13% 30.00 in 10.0 mi West 8.1 mph - N/A   Clear
4:53 PM 64.0 °F - 15.1 °F 15% 29.99 in 10.0 mi WSW 5.8 mph - N/A   Clear
5:53 PM 53.1 °F - 19.0 °F 26% 30.00 in 10.0 mi SSW 5.8 mph - N/A   Clear
6:53 PM 48.0 °F - 18.0 °F 30% 30.00 in 10.0 mi South 10.4 mph - N/A   Clear
7:53 PM 45.0 °F 39.7 °F 18.0 °F 34% 30.00 in 10.0 mi South 10.4 mph - N/A   Clear
8:53 PM 42.1 °F 36.6 °F 18.0 °F 38% 29.99 in 10.0 mi South 9.2 mph - N/A   Clear
9:53 PM 39.0 °F 32.8 °F 19.0 °F 45% 29.98 in 10.0 mi SSE 9.2 mph - N/A   Clear
10:53 PM 42.1 °F 35.7 °F 19.0 °F 40% 29.96 in 10.0 mi South 11.5 mph - N/A   Clear
11:53 PM 39.9 °F 33.4 °F 19.0 °F 43% 29.92 in 10.0 mi South 10.4 mph - N/A   Clear